map of AER home
Great Circle Mapper logo
AER - Airport
Location
City:  Sochi, Krasnodarakiy, Russian Federation (Russia)
ICAO / IATA:URSS / AER

Details
Type:Airport (Aerodrome, Airfield)
Use:Public/Civil
Latitude:4327'00"N (43.449928)
Longitude:3957'24"E (39.956589)
Datum:WGS 1984
Elevation:89 ft (27 m)
Variation:6.73E (WMM2015 magnetic declination)
0.09 annual change
Runways:2
Longest:9482 × 164 ft (2890 × 50 m), paved

Time
Time Zone:UTC+3 (DST+4)

Weather
METAR:URSS 280301Z 35002MPS 9999 FEW110 12/06 Q1017 R02/000070 R06/000070 NOSIG RMK R06/25001MPS QFE762
TAF:URSS 280142Z 2803/2903 06006MPS 9999 FEW030 BKN100
BECMG 2805/2807 18005G10MPS
TEMPO 2810/2815 25005G10MPS
BECMG 2816/2818 06005MPS BKN100

Related Locations
Nearby:
Farthest:NTAV: 11014 mi / 17726 km
Raivavae, Tubuai Islands, Austral Islands, PF

Find:

   beyond  
but within

Other Information
Maps:
NOTAMs:
Links:
Sources:

  
flag of Russian Federation (Russia)
flag of Krasnodarakiy
  

Sectional Chart

Flight Planning
at skyvector.com

Satellite Image

Google Maps Satellite View

 

Copyright © 2004-2015 Karl L. Swartz. All rights reserved.
The Great Circle Mapper name and logo are trademarks of the Great Circle Mapper.
All other trademarks mentioned herein belong to their respective owners.
Please see credits for attibutions and further copyright information.

  Follow gcmap on Facebook Follow gcmap on Twitter Follow gcmap on Google+

hCard Microformat

Geo Microformat